Terminal Aerodrome Forecast
Issued by NWS Tampa Bay Area, FL

Home | Current Version | Previous Version | Text Only | Print | Product List | Glossary On
Versions: 1 2 3 4 5 6 7 8 9 10 11 12 13 14 15 16 17 18 19 20 21 22 23 24 25 26
000
FTUS42 KTBW 210200 AAA
TAFTPA
TAF AMD
KTPA 210231Z 2103/2124 VRB03KT P6SM BKN090 BKN250
     FM210900 14005KT P6SM SCT020 BKN080 BKN250
     FM212100 21006KT P6SM VCSH OVC050=

USA.gov is the U.S. government's official web portal to all federal, state and local government web resources and services.